Weather in Novoalekseyevka

Russia / Amur Oblast     50°33′26″N   128°05′30″E
temp.,
°C
wind,
m/s
gust,
m/s
humid.,
%
clouds,
%
prec.,
mm/h
press.,
hPa
HPBL,
m
18 may, tue
tue1800:00+12n586596 0.3 997216
03:00+9n487527 0.3 998221
06:00+10nw117847 0.0 99978
09:00+15w236299 0.0 999655
12:00+20wnw5843100 0.0 9982408
15:00+17nw5652100 0.1 10001076
18:00+14n3558100 0.1 1002215
21:00+12ne236388 0.1 100248
19 may, wed
wed1900:00+11nne236523 0.0 100344
03:00+7ene22535 0.0 100414
06:00+7n595156 0.0 1006312
09:00+12ene34389 0.0 1006647
12:00+16ene1138100 0.0 10061229
15:00+17se333775 0.0 10041402
18:00+18se464073 0.0 10021483
21:00+15se71446100 0.0 999437
20 may, thu
thu2000:00+14s61644100 0.1 996588
03:00+13ssw3868100 0.4 996289
06:00+10nw7127923 0.0 1000668
09:00+12nnw78577 0.0 10041018
12:00+17n453691 0.0 10051450
15:00+18nne223097 0.0 10051812
18:00+18e2132100 0.0 10051080
21:00+13e484912 0.0 1006133
21 may, fri
fri2100:00+11ese3552100 0.0 100792
03:00+9se2257100 0.0 100623
06:00+10nne235958 0.0 1008103
09:00+15ne564523 0.0 1008686
12:00+18ne663913 0.0 10081238
15:00+20ne55390 0.0 10061454
18:00+19nne66440 0.0 10051391
21:00+14ne613490 0.0 1007538
22 may, sat
sat2200:00+11ne7144145 0.1 1007451
03:00+10nne4872100 0.8 1006294
06:00+9ne497498 0.7 1006315
09:00+15e235488 0.7 1004501
12:00+22sse5645100 0.0 1001985
15:00+26ssw51040100 0.0 9981208
18:00+27s71334100 0.0 995689
21:00+23sse71843100 0.0 995527